Regional Weather Roundup
Issued by NWS

Home | Current Version | Previous Version | Graphics & Text | Print | Product List | Glossary On
Versions: 1 2 3 4 5 6 7 8 9 10 11 12 13 14 15 16 17 18 19 20 21 22 23 24 25 26 27 28 29 30 31 32 33 34 35 36 37 38 39 40 41 42 43 44 45 46 47 48 49 50
000
ASUS45 KTFX 051204
RWRMT
MONTANA REGIONAL WEATHER ROUNDUP
NATIONAL WEATHER SERVICE GREAT FALLS MT
600 AM MDT SAT SEP 05 2015

NOTE: "FAIR" INDICATES FEW OR NO CLOUDS BELOW 12000 FEET WITH NO
SIGNIFICANT WEATHER AND/OR OBSTRUCTIONS TO VISIBILITY.

MTZ001>007-043-051300-
WEST OF THE DIVIDE

CITY           SKY/WX    TMP DP  RH WIND       PRES   REMARKS
KALISPELL      LGT RAIN  50  41  71 N12       29.86R
MISSOULA       CLOUDY    50  47  89 S6        29.87R
BUTTE          CLOUDY    41  40  96 SE5       29.90F
MULLAN PASS    FOG       39  39 100 SE7       29.86S VSB 1/2
DEER LODGE       N/A     46  43  87 W7        29.92F
EUREKA           N/A     48  43  81 CALM      29.94R
HAMILTON         N/A     50  48  93 N7        29.84F
LIBBY            N/A     48  45  87 W3        29.90F
$$

MTZ008-052>055-051300-
SOUTHWEST MONTANA

CITY           SKY/WX    TMP DP  RH WIND       PRES   REMARKS
BOZEMAN        CLOUDY    48  47  96 CALM      29.87R
DILLON         CLOUDY    49  44  83 CALM      29.88R
W YELLOWSTONE  MOCLDY    45  41  87 SW9       29.93S
$$

MTZ009-010-012-014-046-048-049-054-051300-
EAST SLOPES AND CENTRAL MONTANA

CITY           SKY/WX    TMP DP  RH WIND       PRES   REMARKS
CUT BANK       CLOUDY    45  44  97 N6        29.97S
GREAT FALLS    RAIN      47  47 100 N12       29.91S VSB 1/4
HELENA         LGT RAIN  48  45  89 W7        29.92R
$$

MTZ011-013-016-021-045-047-050-051-051300-
NORTH CENTRAL MONTANA

CITY           SKY/WX    TMP DP  RH WIND       PRES   REMARKS
HAVRE          CLOUDY    48  46  93 NE13      29.95F
LEWISTOWN      CLOUDY    48  46  93 SE10      29.92S
N BAR RANCH    FOG       46  46 100 E7        29.93F VSB 1
CHINOOK          N/A     48  48 100 NE3       29.96F
FORT BENTON      N/A     48  48 100 NE8       29.92F
$$

MTZ017>020-022>027-061-062-051300-
NORTHEAST MONTANA

CITY           SKY/WX    TMP DP  RH WIND       PRES   REMARKS
GLASGOW        CLOUDY    53  48  83 N7        29.93S
JORDAN           N/A     54  49  83 N9        29.89F
SIDNEY         CLOUDY    59  55  88 N10         N/A
WOLF POINT     CLOUDY    56  49  77 NE18G25   29.89F
PLENTYWOOD       N/A     54  52  94 N14       29.92F
POPLAR           N/A     55  52  88 N14       29.88F
$$

MTZ028>42-056>058-051300-
SOUTHCENTRAL AND SOUTHEAST MONTANA

CITY           SKY/WX    TMP DP  RH WIND       PRES   REMARKS
BAKER          MOCLDY    61  58  90 CALM      29.84R
BILLINGS       CLOUDY    53  48  83 N8        29.90F
LIVINGSTON     CLOUDY    52  47  83 E15G25    29.87S
MILES CITY     CLOUDY    60  57  89 NE14      29.84R
FORSYTH          N/A     57  55  94 NW6       29.86R
$$

REGIONAL REPORTS...DAKOTAS

CITY           SKY/WX    TMP DP  RH WIND       PRES   REMARKS
WILLISTON      MOCLDY    58  56  93 N9        29.88R
MINOT          CLOUDY    59  57  93 NE15      29.90F
DICKINSON      CLOUDY    63  60  90 E14       29.84F
BISMARCK       CLOUDY    68  68 100 E12       29.84F FOG
GRAND FORKS    CLOUDY    64  63  96 N12       29.88S
FARGO          CLEAR     68  66  93 NE3       29.84S
BUFFALO SD       N/A     64  61  90 E16       29.75F
RAPID CITY     CLOUDY    67  59  75 N5        29.83S
$$

REGIONAL REPORTS...WYOMING/IDAHO/WASHINGTON

CITY           SKY/WX    TMP DP  RH WIND       PRES   REMARKS
GILLETTE       PTCLDY    53  50  89 SW3       29.89F
SHERIDAN       CLEAR     51  47  86 W9        29.90R
BUFFALO WY     CLEAR     49  46  90 W3        29.93R
CODY           PTCLDY    46  43  87 S7        29.94F
YELLOWSTONE LA   N/A     48  43  82 CALM      30.02F
IDAHO FALLS    CLEAR     49  36  61 S17       29.92R
SALMON         CLOUDY    48  43  81 NE6       29.88F
BOISE          CLEAR     49  39  68 CALM      29.95R
SPOKANE        LGT RAIN  48  46  93 S5        29.83R
$$

REGIONAL REPORTS...ALBERTA

CITY           SKY/WX    TMP DP  RH WIND       PRES   REMARKS
MEDICINE HAT   CLOUDY    48  46  93 NE10      30.02F
$$

REGIONAL REPORTS...SASKATCHEWAN

CITY           SKY/WX    TMP DP  RH WIND       PRES   REMARKS
SWIFT CURRENT  LGT RAIN  48 N/A N/A NE16      30.01F
$$



USA.gov is the U.S. government's official web portal to all federal, state and local government web resources and services.